sat.trackr.live / text

‹ back to catalog

ONEWEB-0667

NORAD 55827 · 2023-029AH

PAYLOAD ACTIVE UNKNOWN

§ Identity

Operator
Country
UK
Launch date
2023-03-09
Launch site
AFETR
Launch vehicle
Mass (kg)
RCS (m²)

Purposes: comms

External: N2YO · Heavens-Above · Gunter

§ Orbital elements

Epoch: 2026-09-19T22:49:17.893920Z

Period
109.03 min
Inclination
87.9146°
Eccentricity
0.0002101
Mean motion
13.20777715 rev/d
Perigee alt
1,180.2 km
Apogee alt
1,183.3 km
Semi-major
7,559.9 km
B*
1.6483e-4
RAAN
255.5294°
Arg perigee
83.9591°
Mean anomaly
276.1782°
Rev number
17,365

§ Raw data

ONEWEB-06671 55827U 23029AH  26262.95090155  .00000080  00000+0  16483-3 0  99972 55827  87.9146 255.5294 0002101  83.9591 276.1782 13.20777715173650

JSON: /api/v1/satellites/55827 · /tle

For live sub-satellite position, see the globe view (requires WebGL).

§ Visibility from observer

Set your observer location to see the next 7 days of passes ≥ 10°. The values pass through the URL so the page stays shareable.

No JS? Fill the form by hand. The geolocation button needs JavaScript.